Location: Nairn
(57.5833°N, 3.8667°W)
Time: 05:15:24
(UTC+00:00)

Altair - Pass Details

Date: 04 December 2020
Orbit: 1501 x 1682 km, 47.2° (Epoch: 17 January)

Event Time Altitude Azimuth Distance (km) Brightness Sun altitude
Rises 22:13:21 0° 257° (WSW) 4,705 10.3 -49.3°
Reaches altitude 10° 22:16:35 10° 251° (WSW) 3,702 9.6 -49.6°
Enters shadow 22:17:15 12° 250° (WSW) 3,502 9.5 -49.7°
